This is the latest recevied weather packets stored in our database for station/object KC4GS-13. If no packets are shown the sender has not sent any weather packets the latest 10 day(s).
| Time | Temp. | Humidity | Pressure | Rain* | Wind** | Luminosity | Snow |
|---|---|---|---|---|---|---|---|
| 1787837095 | 23.89° C | 99% | 1017.7 hPa | 0 mm | - | 127 W/m² | - |
| 1787836793 | 23.33° C | 99% | 1017.5 hPa | 0 mm | - | 118 W/m² | - |
| 1787836489 | 23.33° C | 99% | 1017.5 hPa | 0 mm | - | 108 W/m² | - |
| 1787836184 | 23.33° C | 99% | 1017.4 hPa | 0 mm | - | 108 W/m² | - |
| 1787835879 | 23.33° C | 99% | 1017.5 hPa | 0 mm | - | 63 W/m² | - |
| 1787835579 | 23.33° C | 99% | 1017.4 hPa | 0 mm | - | 60 W/m² | - |
| 1787835274 | 23.33° C | 99% | 1017.5 hPa | 0 mm | - | 72 W/m² | - |
| 1787834969 | 23.33° C | 99% | 1017.2 hPa | 0 mm | - | 66 W/m² | - |
| 1787834668 | 23.33° C | 99% | 1017.4 hPa | 0 mm | - | 54 W/m² | - |
| 1787834363 | 23.33° C | 99% | 1017.5 hPa | 0 mm | - | 57 W/m² | - |
| 1787834059 | 23.33° C | 99% | 1017.5 hPa | 0 mm | - | 54 W/m² | - |
| 1787833754 | 23.33° C | 99% | 1017.4 hPa | 0 mm | - | 40 W/m² | - |
| 1787833450 | 23.33° C | 99% | 1017.4 hPa | 0 mm | - | 41 W/m² | - |
| 1787833145 | 23.33° C | 99% | 1017.5 hPa | 0 mm | - | 39 W/m² | - |
| 1787832841 | 23.33° C | 99% | 1017.3 hPa | 0 mm | - | 35 W/m² | - |
| 1787832536 | 23.33° C | 99% | 1017.5 hPa | 0 mm | - | 40 W/m² | - |
| 1787832235 | 23.33° C | 99% | 1017.4 hPa | 0 mm | - | 25 W/m² | - |
| 1787831932 | 23.33° C | 99% | 1017.2 hPa | 0 mm | - | 26 W/m² | - |
| 1787831622 | 23.33° C | 99% | 1017.2 hPa | 0 mm | - | 15 W/m² | - |
| 1787831321 | 23.33° C | 99% | 1017.3 hPa | 0 mm | - | 14 W/m² | - |
| 1787831018 | 23.33° C | 99% | 1017.1 hPa | 0 mm | - | 10 W/m² | - |
| 1787830717 | 23.33° C | 99% | 1017.3 hPa | 0 mm | - | 9 W/m² | - |
| 1787830416 | 23.33° C | 99% | 1017 hPa | 0 mm | - | 6 W/m² | - |
| 1787830111 | 23.33° C | 99% | 1016.8 hPa | 0 mm | - | 6 W/m² | - |
| 1787829810 | 23.33° C | 99% | 1017.1 hPa | 0 mm | - | 4 W/m² | - |
* Rain latest hour (hover to see other rain measurements)
** Current wind speed in m/s (hover to see current wind gust speed)